Regional Weather Roundup
Issued by NWS

Home | Current Version | Previous Version | Text Only | Print | Product List | Glossary On
Versions: 1 2 3 4 5 6 7 8 9 10 11 12 13 14 15 16 17 18 19 20 21 22 23 24 25 26 27 28 29 30 31 32 33 34 35 36 37 38 39 40 41 42 43 44 45 46 47 48 49 50
000
ASUS43 KTOP 311908
RWRKS

WEATHER ROUNDUP FOR KANSAS
NATIONAL WEATHER SERVICE GOODLAND KS
200 PM CDT THU JUL 31 2014

NOTE:  "FAIR" INDICATES FEW OR NO CLOUDS BELOW 12,000 FEET WITH NO
SIGNIFICANT WEATHER AND/OR OBSTRUCTIONS TO VISIBILITY.

KSZ001>006-013>018-027>032-041>047-312000-
NORTHWEST KANSAS

CITY           SKY/WX    TMP DP  RH WIND       PRES   REMARKS
GOODLAND       MOSUNNY   80  50  34 NW8       30.21F
HAYS           MOSUNNY   81  54  39 CALM      30.13F
HILL CITY      PTSUNNY   85  50  29 CALM      30.12F
RUSSELL        MOSUNNY   84  58  40 S15       30.11F
$$

KSZ061>065-074>080-084>089-312000-
SOUTHWEST KANSAS

CITY           SKY/WX    TMP DP  RH WIND       PRES   REMARKS
DODGE CITY     MOSUNNY   80  54  40 NE8       30.17F
ELKHART          N/A     75  57  53 E1          N/A
GARDEN CITY    MOSUNNY   79  52  38 MISG      30.19F
GREAT BEND       N/A     79  57  47 CALM      30.12F
PRATT          SUNNY     79  52  38 N3        30.16F
$$

KSZ066>073-081>083-090>101-312000-
SOUTHEAST KANSAS

CITY           SKY/WX    TMP DP  RH WIND       PRES   REMARKS
CHANUTE        MOSUNNY   80  59  48 VRB5      30.10F
COFFEYVILLE    CLOUDY    79  64  60 N5        30.08F
HUTCHINSON     MOSUNNY   81  56  42 VRB3      30.13F
MEDICINE LODGE   N/A     79  57  46 NE9       30.13F
NEWTON         SUNNY     79  52  38 NE6       30.15F
PARSONS        CLOUDY    79  62  56 VRB3      30.10F
WICHITA INTL   PTSUNNY   82  57  42 N9        30.11F
WICHITA JABRA  MOSUNNY   82  57  42 VRB6      30.11F
WICHITA MCCONL MOSUNNY   80  55  41 NE7       30.12F
WINFIELD       CLOUDY    78  62  57 N8        30.12F
$$

KSZ007>012-019>026-033>040-048>060-102>105-312000-
NORTHEAST KANSAS

CITY           SKY/WX    TMP DP  RH WIND       PRES   REMARKS
CONCORDIA      SUNNY     83  56  39 VRB3      30.09F
EMPORIA        SUNNY     79  53  40 CALM      30.11F
LAWRENCE       MOSUNNY   83  58  42 NE3       30.09F
MANHATTAN      MOSUNNY   82  52  35 NW3       30.09F
MARYSVILLE     SUNNY     82  50  32 W3        30.09F
OLATHE IND     CLOUDY    80  55  42 N7        30.10F
OLATHE EXE     MOSUNNY   81  55  40 VRB5      30.10F
SALINA         MOSUNNY   85  51  31 NE7       30.10F
TOPEKA BILLARD MOSUNNY   84  52  33 VRB5      30.09F
TOPEKA FORBES  MOSUNNY   82  52  35 NE8       30.09F
$$



USA.gov is the U.S. government's official web portal to all federal, state and local government web resources and services.